Location: Bini?tki
(50.4454°N, 20.6582°E)
Time: 14:37:26
(UTC+00:00)

Daily predictions for brighter satellites

Satellite Brightness Start Highest point End
(mag) Time Altitude Azimuth Time Altitude Azimuth Time Altitude Azimuth
Centaur D AC-29 4.4 19:07:07 10° SSW 19:12:34 19° SSE 19:26:45 10° ESE
Ariane Rocket 3.3 19:24:04 10° SSE 19:29:02 57° ENE 19:34:03 10° N
Cosmos 2251 Rocket 3.8 19:25:45 10° SSW 19:31:02 76° WNW 19:36:25 10° NNE
KORONAS-FOTON 3.7 19:29:05 10° S 19:32:48 82° E 19:36:33 10° NNE
COSMOS 2406 3.2 19:28:34 10° SSW 19:34:18 78° ESE 19:40:04 10° NNE
Cosmos 1553 Rocket 4.1 19:29:10 10° N 19:35:20 83° W 19:41:35 10° S
Cosmos 1842 3.2 19:32:35 10° S 19:36:14 84° WNW 19:39:55 10° N
Meteor 1-13 Rocket 4.5 19:31:25 10° S 19:37:04 55° E 19:42:38 10° NNE
S3M 4.3 19:31:04 10° N 19:37:25 61° ENE 19:43:40 10° SSE
SPOT 3 Rocket 3.7 19:32:28 10° SSE 19:37:31 62° ENE 19:42:38 10° N
Cosmos 1980 Rocket 3.5 19:34:23 10° NW 19:39:33 36° WSW 19:44:40 10° S
Cosmos 2322 Rocket 2.8 19:34:13 10° NNW 19:39:42 48° NE 19:45:11 10° SE
CZ-4C R/B 4.0 19:41:24 10° N 19:45:29 64° WNW 19:49:35 10° SSW
ARGOS Delta rocket 4.2 19:41:24 10° S 19:45:49 56° W 19:50:10 10° NNW
Cosmos 407 Rocket 4.4 19:40:54 10° SW 19:46:00 53° WNW 19:51:05 10° NNE
Cosmos 2278 3.8 19:42:53 10° NNW 19:48:39 87° WSW 19:54:21 10° SSE
Okean-O 4.3 19:48:32 10° SSW 19:52:24 30° W 19:56:18 10° NNW
USA 281 4.1 19:46:58 10° ESE 19:52:58 40° NE 19:59:00 10° NNW
SJ 16-02 3.3 19:52:36 10° ESE 19:54:32 13° E 19:56:29 10° ENE
Genesis I 3.7 19:51:13 10° SW 19:54:41 58° NW 19:58:13 10° NE
Cosmos 2266 Rocket 4.1 19:48:44 10° S 19:54:57 65° E 20:01:18 10° NNE
Landsat 5 4.3 19:51:36 10° NNE 19:55:09 31° E 19:58:48 10° SSE
Cosmos 540 Rocket 4.1 19:50:57 10° NNW 19:55:57 52° WSW 20:00:56 10° S
Cosmos 2237 4.3 19:54:37 10° NNW 20:00:23 80° WSW 20:05:58 11° SSE
USA 245 3.9 19:57:27 10° S 20:00:42 51° W 20:04:50 10° NNW
Cosmos 1954 Rocket 4.1 19:56:05 10° SSW 20:01:23 88° WNW 20:06:42 10° NNE
Landsat 4 3.6 19:59:12 10° S 20:02:39 73° WSW 20:06:06 10° NNW
Cosmos 1733 Rocket 3.7 19:59:11 10° N 20:03:26 44° ENE 20:07:15 12° SE
Tiangong 0.2 20:02:57 10° SW 20:04:10 12° SSW 20:05:18 10° S
MetOp-A 4.3 19:59:26 11° SSE 20:04:24 58° ENE 20:09:35 10° N
Cosmos 1400 Rocket 2.9 20:00:43 10° S 20:04:32 56° E 20:08:20 10° NNE
Terra 2.2 19:59:54 10° S 20:04:33 62° WSW 20:09:15 10° NNW
SL-08 ROCKET BODY 4.5 20:00:16 10° S 20:06:21 71° E 20:12:24 10° NNE
Cosmos 2219 Rocket 3.3 20:03:10 10° NNW 20:08:23 36° NE 20:13:37 10° ESE
Cosmos 1707 3.6 20:05:08 10° SSW 20:08:36 45° WNW 20:12:06 10° N
Cosmos 676 Rocket 4.1 20:05:25 10° SSW 20:10:44 89° WNW 20:16:06 10° NNE
SL-4 R/B 2.0 20:07:22 10° W 20:11:13 85° N 20:15:22 10° ENE
Cosmos 2228 Rocket 3.6 20:07:18 10° SSE 20:11:37 47° E 20:16:00 10° NNE
Meteor 2-10 Rocket 3.7 20:08:38 10° NNW 20:14:19 84° ENE 20:19:27 12° SSE
Meteor 1-15 Rocket 4.3 20:10:04 10° NNW 20:15:38 76° W 20:21:12 10° S
Orbus 7S? 4.3 20:11:47 10° WSW 20:16:27 48° NNW 20:19:16 10° NE
SeaSat 1 3.8 20:13:08 10° S 20:17:29 32° WSW 20:21:53 10° NW
ATLAS CENTAUR R/B 2.3 20:17:20 15° SSE 20:19:06 21° ESE 20:21:52 10° ENE
USA 234 3.3 20:13:35 10° ENE 20:20:11 87° SSE 20:26:44 10° WSW
EXPRESS MD2 2.2 20:19:52 10° WSW 20:22:21 44° SSE 20:24:26 10° E
Cosmos 1953 3.7 20:19:52 10° NNE 20:23:05 24° ENE 20:25:44 13° ESE
Meteor 1-23 Rocket 4.2 20:17:36 10° S 20:23:15 77° E 20:28:59 10° NNE
Cosmos 1869 Rocket 4.4 20:20:10 10° NNW 20:24:26 47° W 20:28:42 10° SSW
H-2A R/B 4.3 20:23:42 10° ESE 20:27:00 22° ENE 20:30:17 10° N
Cosmos 1455 3.7 20:24:54 10° NNE 20:27:42 22° ENE 20:29:57 13° ESE
Cosmos 2315 Rocket 4.1 20:21:59 10° N 20:28:23 88° W 20:34:21 12° S
Okean 1-7 4.2 20:28:24 15° SE 20:31:07 28° E 20:34:49 10° NNE
Cosmos 2360 Rocket 2.2 20:25:58 10° NNW 20:31:41 82° ENE 20:36:22 16° SSE
MOS 1 Rocket 4.4 20:27:11 10° S 20:32:24 49° W 20:37:35 10° NNW
Cosmos 841 Rocket 4.0 20:31:05 10° NNW 20:36:13 54° WSW 20:40:43 13° S
Cosmos 2333 Rocket 2.3 20:30:41 10° NNW 20:36:27 82° ENE 20:41:09 16° SSE
SL-16 R/B 2.8 20:33:44 10° NW 20:39:10 49° WSW 20:43:56 13° S
Atlas Centaur 2 4.3 20:36:15 10° SW 20:41:04 17° S 20:43:36 14° SSE
RESURS DK-1 2.8 20:38:45 10° NW 20:42:44 52° WSW 20:45:34 18° S
Cosmos 2082 Rocket 4.0 20:40:34 10° WSW 20:45:43 34° NW 20:50:53 10° NNE
Cosmos 839 Rocket 4.2 20:38:34 10° NW 20:45:49 78° NE 20:51:07 15° SE
SL-14 R/B 3.3 20:42:15 11° SSW 20:45:51 76° WNW 20:49:39 10° N
Timation 1 Rocket 4.3 20:42:12 10° SSW 20:48:10 84° ESE 20:54:10 10° NNE
Cosmos 1300 3.3 20:46:46 10° NNW 20:50:12 47° W 20:52:53 15° SSW
Cosmos 1833 4.4 20:48:14 13° S 20:53:06 51° ESE 20:58:32 10° NE
Aureole 3 3.4 20:50:55 18° S 20:53:40 73° E 20:58:20 10° NNE
Cosmos 1703 Rocket 4.5 20:55:40 19° SE 20:58:11 35° E 21:02:15 10° NNE
Cosmos 1346 Rocket 3.4 20:55:06 10° NNW 20:58:51 49° W 21:01:35 17° SSW
Cosmos 1862 Rocket 3.6 20:55:44 14° SSW 20:59:31 82° W 21:03:58 10° N
Meteor 1-16 Rocket 4.4 20:55:14 10° NNW 21:01:11 87° WSW 21:05:41 18° S
ATLAS 2AS CENTAUR R/B 2.7 20:56:03 10° NW 21:02:53 71° SW 21:07:52 19° SSE
Cosmos 2322 4.3 20:57:21 10° NNW 21:02:54 50° NE 21:07:36 14° SE
Cosmos 2237 Rocket 4.1 20:59:10 10° NNW 21:03:45 24° NE 21:08:18 10° E
Cosmos 2333 4.3 21:03:04 10° NNW 21:08:51 76° WSW 21:12:55 20° SSE
Meteor 1-4 Rocket 1.9 21:09:49 27° S 21:11:16 84° ESE 21:14:17 10° NNE
Cosmos 1356 Rocket 4.2 21:09:29 10° SSW 21:13:32 49° WNW 21:17:38 10° N
Cosmos 1850 Rocket 4.5 21:14:47 10° SW 21:19:58 62° WNW 21:25:09 10° NNE
ARIANE 5 R/B 2.6 21:17:31 23° S 21:20:10 77° WSW 21:24:32 10° NNW
SL-27 R/B 2.6 21:19:33 17° SW 21:21:27 49° WNW 21:24:12 10° NNE
Cosmos 2322 Rocket 3.2 21:18:30 10° NW 21:23:38 36° WSW 21:27:28 16° SSW
PSLV R/B 3.8 21:20:40 10° NNE 21:24:40 68° ESE 21:26:52 25° S
Cosmos 1745 Rocket 4.4 21:20:33 20° SSE 21:24:45 52° E 21:30:53 10° NNE
Cosmos 1570 Rocket 4.2 21:20:01 10° NNW 21:25:22 68° ENE 21:29:00 21° SE
Okean 2 3.3 21:24:44 22° SSW 21:27:12 85° W 21:31:15 10° N
COSMOS 2455 4.2 21:25:54 18° SE 21:28:12 22° ESE 21:32:41 10° ENE
SJ 16-02 1.3 21:28:54 17° SSW 21:32:13 80° WNW 21:36:35 10° NNE
Nadezhda 1 Rocket 4.1 21:26:30 10° N 21:32:52 77° E 21:37:05 22° SSE
Cosmos 2297 Rocket 4.0 21:31:23 13° ESE 21:33:32 16° E 21:36:54 10° ENE
USA 281 3.5 21:32:45 20° S 21:37:18 57° WSW 21:43:48 10° NNW
GP-B 3.2 21:37:43 10° N 21:42:07 70° W 21:44:46 23° SSW
COSMOS 2428 2.8 21:36:33 10° NNW 21:42:16 75° ENE 21:46:15 20° SE
Cosmos 1386 Rocket 4.5 21:39:28 21° S 21:43:53 80° E 21:50:07 10° NNE
Cosmos 968 Rocket 4.1 21:41:33 10° SW 21:46:35 53° WNW 21:51:42 10° NNE
SL-4 R/B 2.1 21:46:08 10° W 21:50:09 80° N 21:54:26 10° E
Cosmos 1408 2.7 21:50:12 36° SE 21:50:47 41° E 21:53:38 10° NNE
Cosmos 1908 Rocket 4.2 21:48:20 10° NNW 21:52:30 45° W 21:54:53 23° SSW
Cosmos 2219 Rocket 2.7 21:47:04 10° NW 21:52:32 50° WSW 21:55:47 23° S
MINOTAUR 4 R/B 4.4 21:50:13 10° N 21:53:02 44° WNW 21:54:22 25° SW
Cosmos 1315 Rocket 3.6 21:51:05 18° SW 21:53:48 46° WNW 21:57:41 10° N
Cosmos 1782 Rocket 3.5 21:50:40 10° NNW 21:55:01 80° W 21:57:10 29° S
Cosmos 2208 Rocket 3.9 21:50:47 10° NNW 21:56:02 88° ENE 21:59:07 25° SSE
ATLAS CENTAUR R/B 2.0 21:53:05 10° WSW 21:56:28 45° NW 22:00:00 10° NNE
Cosmos 1953 3.5 21:55:31 10° NNW 21:58:56 31° W 22:00:51 20° SW
Cosmos 158 Rocket 4.0 21:53:54 10° NNW 21:59:16 88° ENE 22:02:24 25° SSE
Spot 2 4.4 21:57:38 26° SSE 22:00:33 85° WSW 22:05:41 10° NNW
Cosmos 836 Rocket 4.5 21:55:58 10° NNW 22:01:12 82° ENE 22:04:22 24° SSE
H-2A R/B 3.0 21:59:30 26° SSW 22:01:38 51° W 22:05:50 10° NNW
Cosmos 1455 3.4 21:59:06 10° NNW 22:02:10 28° W 22:03:41 20° SW
Cosmos 371 Rocket 4.2 22:00:27 24° SE 22:02:24 34° ESE 22:06:44 10° NE
USA 234 4.0 21:56:38 10° ENE 22:02:59 55° NNW 22:09:20 10° W
Cosmos 1242 Rocket 2.7 22:04:20 31° WSW 22:05:13 43° WNW 22:07:54 10° N
Spot 4 4.1 22:03:33 26° S 22:06:08 58° W 22:10:54 10° NNW
Cosmos 773 Rocket 4.4 22:01:10 10° NNW 22:06:15 59° ENE 22:09:48 20° SE
Okean 1-7 4.4 22:04:58 13° SW 22:08:19 34° WNW 22:12:16 10° N
CZ-4C R/B 2.8 22:11:44 25° SSE 22:13:12 30° ESE 22:17:54 10° ENE
ALOS 2 2.7 22:11:53 29° S 22:14:00 65° WSW 22:18:23 10° NNW
Cosmos 2360 Rocket 4.0 22:11:06 10° WNW 22:14:59 19° W 22:18:06 13° SW
CENTAUR R/B 4.2 22:13:10 11° SE 22:15:25 13° ESE 22:18:19 10° ENE
GENESIS II 4.0 22:15:59 36° SSW 22:17:14 61° SE 22:20:51 10° NE
Cosmos 1300 Rocket 3.8 22:13:05 10° NNW 22:17:19 57° W 22:19:20 29° SSW
Okean 2 Rocket 4.1 22:13:19 10° N 22:17:31 38° ENE 22:20:12 19° SE
Cosmos 2333 Rocket 4.0 22:16:05 10° NW 22:20:03 19° W 22:23:08 13° SW
H-2A R/B 2.7 22:17:41 10° NNE 22:21:46 41° E 22:23:29 28° SSE
Cosmos 1709 Rocket 4.0 22:20:21 23° S 22:24:30 89° W 22:30:55 10° N
EXPRESS MD2 4.3 22:27:27 10° W 22:33:59 - ESE 22:27:54 15° W
USA 129 4.5 22:33:26 10° NNW 22:33:54 12° NW 22:33:54 12° NW
BREEZE-M DEB (TANK) 2.9 22:24:25 10° W 22:34:39 79° S 22:37:50 10° ESE
Cosmos 2098 Rocket 4.1 22:28:07 10° N 22:34:43 89° E 22:38:56 24° S
Cosmos 1674 Rocket 4.3 22:34:20 25° SE 22:36:20 40° E 22:40:25 10° NNE
Sich 1 Rocket 3.9 22:33:35 10° N 22:37:57 58° ENE 22:40:19 25° SSE
Cosmos 2242 Rocket 3.9 22:36:20 26° SSW 22:38:48 63° WNW 22:43:22 10° N
Cosmos 1378 Rocket 4.0 22:37:10 28° SSE 22:39:08 51° E 22:43:23 10° NNE
SL-16 R/B 3.7 22:34:06 10° NNW 22:39:19 35° NE 22:44:29 10° ESE
NOSS 0 Rocket 4.0 22:33:21 10° NW 22:39:32 66° WSW 22:43:20 24° S
Cosmos 1486 Rocket 3.9 22:38:07 26° SSW 22:41:07 85° ESE 22:46:22 10° NNE
NOSS 8 (H) 4.5 22:41:25 40° S 22:42:18 54° SE 22:45:18 10° NE
Meteor 1-24 Rocket 3.7 22:39:51 25° S 22:43:22 85° E 22:49:04 10° NNE
Cosmos 2237 Rocket 2.1 22:42:50 10° NNW 22:48:33 86° WSW 22:52:21 22° SSE
NOSS 8 (F) 4.3 22:47:10 30° SW 22:48:50 88° SE 22:51:55 10° NE
BlueWalker 3 2.0 22:50:03 36° SSW 22:51:11 51° SSE 22:54:50 10° ENE
ATLAS 2AS CENTAUR R/B 4.3 22:48:37 10° WNW 22:52:34 16° WSW 22:55:16 13° SW
Cosmos 1825 2.7 22:51:35 31° SE 22:52:40 41° E 22:55:56 10° NNE
Cosmos 1354 Rocket 4.3 22:51:12 27° S 22:53:59 56° ESE 22:59:10 10° NNE
Cosmos 405 Rocket 2.6 22:50:50 10° NNW 22:54:33 69° W 22:55:58 36° S
Cosmos 2227 Rocket 3.1 22:53:35 22° SSE 22:56:28 36° ESE 23:01:37 10° NE
Cosmos 546 4.5 22:53:47 10° W 22:57:39 73° SSW 23:01:31 10° ESE
Cosmos 304 Rocket 3.7 22:55:48 28° SSW 22:58:20 85° ESE 23:03:08 10° NNE
Cosmos 1980 3.7 22:55:34 10° NNW 23:01:12 67° WSW 23:04:39 24° S
PSLV R/B 4.1 23:02:30 10° N 23:06:38 49° WNW 23:08:58 23° SW
Meteor 2-5 Rocket 4.0 23:03:32 22° SSW 23:07:22 66° WNW 23:13:13 10° N
Cosmos 1703 4.2 23:06:48 23° SW 23:08:31 36° WNW 23:11:58 10° N
SJ 16-02 4.0 23:09:08 10° WNW 23:11:20 14° NW 23:13:32 10° NNW
COSMOS 2455 2.9 23:08:59 19° SW 23:13:28 82° NW 23:19:33 10° NE
Cosmos 2219 4.4 23:12:45 18° SSE 23:15:54 29° ESE 23:20:41 10° NE
Cosmos 2297 Rocket 2.2 23:13:10 24° SSW 23:16:44 87° ESE 23:22:26 10° NNE
Cosmos 2181 Rocket 4.3 23:12:24 10° NNW 23:18:28 55° W 23:22:13 23° SSW
CZ-2D R/B 4.3 23:17:21 10° NE 23:20:30 16° E 23:23:39 10° ESE
Okean 1 Rocket 3.0 23:20:01 10° NNW 23:24:22 76° W 23:26:38 28° S
COSMOS 2428 4.2 23:21:45 10° NW 23:25:55 21° W 23:28:12 17° SW
GEOS 3 Rocket 3.6 23:22:19 10° NE 23:27:32 83° NW 23:31:28 18° SW
IDEFIX/ARIANE 42P 4.3 23:24:28 10° NE 23:28:42 24° E 23:32:47 10° SE
SL-4 R/B 2.2 23:24:52 10° WNW 23:28:53 48° SSW 23:33:04 10° SE
ATLAS CENTAUR R/B 4.1 23:33:10 10° NW 23:35:01 13° NNW 23:36:54 10° N
Cosmos 2074 Rocket 4.1 23:33:38 22° SSW 23:37:47 73° WNW 23:44:00 10° N
Cosmos 1892 3.1 23:38:13 27° SW 23:39:43 44° WNW 23:43:07 10° N
Aureole 1 Rocket 4.0 23:40:08 20° SSE 23:41:51 30° ESE 23:45:31 10° NE
Cosmos 371 Rocket 4.4 23:38:59 14° WSW 23:42:40 37° WNW 23:47:11 10° NNE
USA 234 4.1 23:39:09 10° E 23:45:29 53° N 23:51:49 10° WNW
NOSS 8 (A) 4.3 23:44:58 10° NW 23:47:54 54° SW 23:49:44 24° SSE
Cosmos 990 Rocket 4.0 23:48:51 23° SSW 23:52:05 74° ESE 23:57:14 10° NNE
Cosmos 1975 Rocket 3.5 23:49:29 20° SSE 23:52:18 53° E 23:56:35 10° NNE
MOZ.5/SAFIR/RUBIN 5/SL-8 3.9 23:49:47 15° SSE 23:53:39 75° ENE 23:58:18 10° NNW
Cosmos 2263 Rocket 3.0 23:50:27 18° SSE 23:54:11 40° ESE 23:59:21 10° NE
Okean 2 Rocket 4.5 23:51:39 10° NNW 23:55:21 26° W 23:57:29 18° SW
